Miscellaneous Local Product
Issued by NWS North Platte, NE

Home | Current Version | Previous Version | Graphics & Text | Print | Product List | Glossary On
Versions: 1 2 3 4 5 6 7 8 9 10 11 12 13 14 15 16 17 18 19 20 21 22 23 24 25 26 27 28 29 30 31 32 33 34 35 36 37 38 39 40 41 42 43 44 45 46 47 48 49 50
000
AXUS43 KLBF 261410
MISLBF


WESTERN AND NORTH CENTRAL NEBRASKA HOURLY WEATHER ROUNDUP
NATIONAL WEATHER SERVICE NORTH PLATTE NE
900 AM CDT MON JUN 26 2017

NOTE: "FAIR" INDICATES FEW OR NO CLOUDS BELOW 12,000 FEET WITH NO
SIGNIFICANT WEATHER AND/OR OBSTRUCTIONS TO VISIBILITY.

NOTE: STATIONS NOT REPORTING VARIABLES SUCH AS SKY/WEATHER OR
PRESSURE ARE PROVIDED BY RAWS AND APRS NETWORKS AND ARE NOT UNDER
NATIONAL WEATHER SERVICE QUALITY CONTROL.

...OBSERVATIONS IN AND NEAR THE EASTERN PANHANDLE OF NEBRASKA...

CITY           SKY/WX    TMP DP  RH WIND       PRES   REMARKS
PINE RIDGE     SUNNY     59  45  59 E5        30.26S
GORDON         FAIR      60  42  50 E13       30.26S
CHADRON        SUNNY     55  41  59 NW3       30.26F
ALLIANCE       SUNNY     58  49  72 NE6       30.25R
SIDNEY         SUNNY     62  55  77 N6        30.26S
CRESCENT LAKE    N/A     65  56  73 NE6         N/A
$$

...OBSERVATIONS IN NORTHERN NEBRASKA AND FAR SOUTHERN SOUTH DAKOTA...

CITY           SKY/WX    TMP DP  RH WIND       PRES   REMARKS
WINNER         FAIR      62  48  60 E7        30.25S
VALENTINE      SUNNY     61  43  51 E12       30.25R
THEDFORD       MOSUNNY   63  51  65 NE8       30.23S
AINSWORTH      SUNNY     60  49  68 NE10      30.24S
O`NEILL        MOSUNNY   61  51  68 N7        30.22R
ORD            MOSUNNY   64  55  72 VRB3      30.19S
BROKEN BOW     PTSUNNY   63  58  83 W9        30.20F
VALENTINE NWR    N/A     56  46  68 NE8         N/A
HALSEY           N/A     62  54  76 CALM        N/A
BUTTE            N/A     58  49  73 N8          N/A
CHAMBERS         N/A     71  50  47 CALM        N/A
EWING            N/A     63  54  72 N3          N/A
$$

...OBSERVATIONS IN SOUTHWEST NEBRASKA AND FAR NORTHEAST COLORADO...

CITY           SKY/WX    TMP DP  RH WIND       PRES   REMARKS
WRAY           CLOUDY    63  61  94 W7        30.24S
IMPERIAL       CLOUDY    60  57  89 CALM      30.23F
OGALLALA       SUNNY     62  57  82 CALM      30.22F
NORTH PLATTE   TSTM      62  60  93 W8        30.22S FOG
MCCOOK         MOSUNNY   65  58  78 SW8       30.21F
LEXINGTON      CLOUDY    65  58  79 SW5       30.22S
STAPLETON        N/A     61  57  88 CALM        N/A
GOTHENBURG       N/A     63  56  79 W3          N/A
CALLAWAY         N/A     60  59  96 SW7         N/A
$$

...OBSERVATIONS IN CENTRAL LINCOLN COUNTY AREA...

CITY           SKY/WX    TMP DP  RH WIND       PRES   REMARKS
N.P. AIRPORT   TSTM      62  60  93 W8        30.22S FOG
N.P. DOWNTOWN    N/A     60  58  94 CALM        N/A
N.P. SOUTHEAST   N/A     60  58  92 CALM        N/A
N.P. HILLCREST   N/A     59  58  96 W3          N/A
$$

...SOME OBSERVATIONS FROM AROUND THE REGION...

CITY           SKY/WX    TMP DP  RH WIND       PRES   REMARKS
DENVER         MOSUNNY   64  53  67 W6        30.28R
LIMON          MOSUNNY   63  58  83 SW9       30.30F
ASPEN          CLOUDY    56  33  42 E5        30.42F
LARAMIE        SUNNY     55  41  59 MISG      30.38S
CASPER         SUNNY     58  37  45 W3        30.28F
CHEYENNE       SUNNY     60  45  57 VRB5      30.33S
SCOTTSBLUFF    SUNNY     62  43  49 N7        30.25S
GRAND ISLAND   PTSUNNY   64  60  87 W12       30.21R
OMAHA          CLOUDY    59  54  83 SE10      30.20S
SIOUX FALLS    SUNNY     60  52  74 NE8       30.23S
PIERRE         SUNNY     58  46  64 E7        30.25S
RAPID CITY     SUNNY     62  40  44 S9        30.26S
BISMARCK       SUNNY     55  46  71 CALM      30.29S
KANSAS CITY    PTSUNNY   61  55  81 NE6       30.23R
HILL CITY      SUNNY     64  59  83 SW9       30.23F
WICHITA        LGT RAIN  67  56  67 SE6       30.21F
DODGE CITY     SUNNY     63  58  83 S9        30.23S
OKLAHOMA CITY  CLOUDY    73  60  63 S10       30.20R
DALLAS         CLOUDY    76  66  71 SE8       30.16R
AMARILLO       SUNNY     65  58  78 W8        30.28R
$$




USA.gov is the U.S. government's official web portal to all federal, state and local government web resources and services.